Meath Environmental Platform

Observations for Trim Market St

Time AQI Temp °C Hum % Pres Pa CO μg/m³ H₂S μg/m³ NO μg/m³ NO₂ μg/m³ O₃ μg/m³ SO₂ μg/m³ PM1 μg/m³ PM2.5 μg/m³ PM10 μg/m³
Wednesday 26 August 2026
05:28 1 16.7 86 2,147,483,647 0.27 0 1.44 15.17 38.27 0 7.13 7.84 11.81
05:27 1 16.7 86 2,147,483,647 0.27 0 1.43 15.6 39.06 0 4.99 6.5 10.21
05:25 1 16.7 86 2,147,483,647 0.28 0 1.45 16.82 32.01 0 7.13 9.28 13.41
05:22 1 16.7 86 2,147,483,647 0.27 0 1.91 14.73 39.31 0 4.99 5.57 10.21
05:15 1 16.7 85 2,147,483,647 0.27 0 1.19 14.36 40.18 0 7.84 8.83 12.89
05:12 1 16.7 85 2,147,483,647 0.27 0 1.44 14.73 36.64 0 5.7 6.51 10.21
05:11 1 16.7 85 2,147,483,647 0.26 0 1.54 15.02 36.97 0 5.7 6.97 11.28
05:07 1 16.7 85 2,147,483,647 0.27 0 1.57 15.17 39.48 0 7.13 7.9 13.96
05:06 1 16.7 85 2,147,483,647 0.26 0 1.6 13.96 39.7 0 6.41 7.9 12.89
05:05 1 16.7 85 2,147,483,647 0.26 0 1.48 14.87 34.46 0 5.7 7.44 12.36
05:04 1 16.7 85 2,147,483,647 0.27 0 1.5 17.48 40.73 0 7.84 8.83 12.89
05:03 1 16.7 85 2,147,483,647 0.28 0 1.23 14.6 31.88 0 6.41 7.44 11.82
05:02 1 16.7 85 2,147,483,647 0.26 0 1.33 13.86 37.45 0 5.7 6.51 10.21
05:01 1 16.7 85 2,147,483,647 0.27 0 1.25 16.53 38.77 0 4.99 7.44 11.28
05:00 1 16.7 85 2,147,483,647 0.27 0 1.18 14.47 36.7 0 4.28 6.05 9.68
04:59 1 16.7 85 2,147,483,647 0.27 0 1.12 14.47 28.56 0 5.7 6.27 9.68
04:58 1 16.7 85 2,147,483,647 0.28 0 1.34 14.36 37.57 0 4.28 6.05 10.75
04:57 1 16.7 85 2,147,483,647 0.27 0 1.16 14.16 37.88 0 5.7 7.44 13.43
04:56 1 16.7 85 2,147,483,647 0.28 0 1.23 17.82 33.02 0 4.99 6.98 11.28
04:55 1 16.7 85 2,147,483,647 0.27 0 1.33 14.06 35.46 0 5.7 6.52 11.29